Location: Pic du Midi - T1M
(42.9366°N, 0.1426°E)
Time: 11:24:23
(UTC+01:00)

X-37B - Pass Details

Date: 27 June 2021
Orbit: 383 x 392 km, 45.0° (Epoch: 01 July)

Event Time Altitude Azimuth Distance (km) Brightness Sun altitude
Rises 22:24:04 0° 272° (W) 2,248 5.0 -14.4°
Reaches altitude 10° 22:26:09 10° 276° (W) 1,395 4.0 -14.6°
Maximum altitude 22:29:14 56° 356° (N) 457 1.2 -15.0°
Enters shadow 22:32:10 11° 76° (ENE) 1,328 3.1 -15.3°
